[Date Prev][Date Next][Thread Prev][Thread Next] - [Date Index][Thread Index][Author Index]

2 Line ISS Keps 10-29



ISS
1 25544U 98067A   05301.79872685  .00014592  00000-0  10313-3 0  6417
2 25544 051.6431 296.2355 0001917 085.4007 280.4578 15.74296506396711
----
Via the sarex mailing list at AMSAT.ORG courtesy of AMSAT-NA.
To unsubscribe, send "unsubscribe sarex" to Majordomo@amsat.org



AMSAT Top AMSAT Home